Location: Buttermere
(51.3333°N, 1.5167°W)
Time: 03:56:49
(UTC+00:00)

H-2A R/B - Pass Details

Date: 18 September 2020
Orbit: 734 x 836 km, 98.2° (Epoch: 18 October)

Event Time Altitude Azimuth Distance (km) Brightness Sun altitude
Rises 19:14:37 0° 171° (S) 3,163 4.9 -10.4°
Reaches altitude 10° 19:16:53 10° 173° (S) 2,252 4.2 -10.7°
Maximum altitude 19:21:49 70° 257° (WSW) 807 2.3 -11.5°
Drops below altitude 10° 19:26:55 10° 342° (NNW) 2,321 5.0 -12.2°
Sets 19:29:17 0° 344° (NNW) 3,268 5.8 -12.6°
